Regional Weather Roundup
Issued by NWS Albany, NY

Home | Current Version | Previous Version | Graphics & Text | Print | Product List | Glossary Off
Versions: 1 2 3 4 5 6 7 8 9 10 11 12 13 14 15 16 17 18 19 20 21 22 23 24 25 26 27 28 29 30 31 32 33 34 35 36 37 38 39 40 41 42 43 44 45 46 47 48 49 50

000
ASUS41 KALY 010010
RWRALY

NEW YORK STATE HOURLY WEATHER ROUNDUP
NATIONAL WEATHER SERVICE ALBANY NY
700 PM EST SAT JAN 31 2015

NOTE: "FAIR" INDICATES FEW OR NO CLOUDS BELOW 12,000 FEET WITH NO
SIGNIFICANT WEATHER AND/OR NO OBSTRUCTIONS TO VISIBILITY.

NYZ032-033-038>043-046>054-057>066-NYZ062>081-010100-
EAST


CITY           SKY/WX    TMP DP  RH WIND       PRES   REMARKS
ALBANY         PTCLDY    13  -1  54 NW9       30.18S WCI   1
GLENS FALLS    PTCLDY     0  -9  65 CALM      30.17R
POUGHKEEPSIE   CLEAR     19  -1  41 NW8       30.17R WCI   9
NEWBURGH       CLEAR     18   5  57 NW16      30.15R WCI   3
MONTGOMERY     CLEAR     19   1  45 W14G23    30.15R WCI   6
WHITE PLAINS   CLEAR     20   1  43 NW23G30   30.11R WCI   3
ISLIP          CLEAR     22   0  38 NW14      30.10R WCI   9
NEW YORK CITY  CLEAR     24   5  44 NW18G28   30.18R WCI  10
CENTRAL PARK   CLEAR     23   3  42 VRB7G22   30.18R WCI  15
$$

NYZ005>009-017-018-044>046-055-056-010100-
CENTRAL


CITY           SKY/WX    TMP DP  RH WIND       PRES   REMARKS
FULTON         CLOUDY    14   5  67 CALM      30.22R
SYRACUSE       FLURRIES  13   6  74 CALM      30.22R
ROME           CLOUDY     9   3  77 NW3       30.24R
ELMIRA         CLEAR      6   2  83 NE3       30.18R
BINGHAMTON     PTCLDY    10   3  73 N6        30.12R WCI   0
MONTICELLO     CLEAR     12   3  67 NW14G20   30.10R WCI  -3
$$

NYZ026>034-041>043-010100-
NORTH


CITY           SKY/WX    TMP DP  RH WIND       PRES   REMARKS
WATERTOWN      CLOUDY    10   0  63 S5        30.22S WCI   2
FORT DRUM      NOT AVBL
MASSENA        PTCLDY     1 -12  54 SW3       30.22S
SARANAC LAKE   PTCLDY    -5 -12  72 CALM      30.05R
PLATTSBURGH    PTCLDY     8 -11  41 CALM      30.17R
$$

NYZ001>004-010>016-019>021-010100-
WEST


CITY           SKY/WX    TMP DP  RH WIND       PRES   REMARKS
NIAGARA FALLS  CLOUDY    22  17  81 SW14      30.18F WCI   9
BUFFALO        CLOUDY    23  16  74 SW10      30.18F WCI  12
DUNKIRK        CLOUDY    24  16  71 S7        30.21R WCI  16
JAMESTOWN      CLOUDY    19  12  73 S10       30.13F WCI   8
WELLSVILLE     MOCLDY    17   8  67 W14       30.12R WCI   3
ROCHESTER      CLOUDY    20  11  68 W6        30.20R WCI  12
PENN YAN       CLEAR      8   3  80 SW3       30.17F
$$

             KEY
       WCI = WIND CHILL INDEX
       VSB = VISIBILITY
       HX  = HEAT INDEX
$$


USA.gov is the U.S. government's official web portal to all federal, state and local government web resources and services.